Location: Casilda
(33.0440°S, 61.1680°W)
Time: 09:09:24
(UTC-03:00)

ISS - Pass Details

Date: 18 May 2018
Orbit: 402 x 407 km, 51.6° (Epoch: 25 May)

Event Time Altitude Azimuth Distance (km) Brightness Sun altitude
Rises 19:23:51 0° 250° (WSW) 2,352 1.0 -15.2°
Reaches altitude 10° 19:27:06 10° 284° (WNW) 1,478 0.4 -15.8°
Maximum altitude 19:28:18 12° 306° (NW) 1,383 -0.1 -16.1°
Drops below altitude 10° 19:29:30 10° 327° (NNW) 1,469 -0.3 -16.3°
Sets 19:32:42 0° 1° (N) 2,316 0.2 -17.0°
